Weather in Turin

Italy     45°04′08″N   7°41′19″E
temp.,
°C
wind,
m/s
gust,
m/s
humid.,
%
clouds,
%
prec.,
mm/h
press.,
hPa
HPBL,
m
25 february, thu
thu2501:00+11wnw01620 0.0 103422
04:00+10wsw11630 0.0 103322
07:00+9wsw11600 0.0 103322
10:00+13ssw11430 0.0 1032127
13:00+18nne00320 0.0 1031374
16:00+19ese11300 0.0 1030648
19:00+14ese11470 0.0 103023
22:00+12wsw01540 0.0 103223
26 february, fri
fri2601:00+11wsw01550 0.0 103222
04:00+10wnw01530 0.0 103022
07:00+9wnw01540 0.0 103022
10:00+12sw11410 0.0 1029166
13:00+17e01310 0.0 1028470
16:00+18e11314 0.0 1026703
19:00+14e125115 0.0 102724
22:00+12ssw00580 0.0 102723
27 february, sat
sat2701:00+11sw00610 0.0 102722
04:00+9wsw00620 0.0 102622
07:00+8nne01640 0.0 102622
10:00+12ne11540 0.0 1026210
13:00+16ne22420 0.0 1026694
16:00+17nne22370 0.0 1025967
19:00+13ene23500 0.0 102669
22:00+11n126123 0.0 102843
28 february, sun
sun2801:00+10n236852 0.0 102975
04:00+9n127422 0.0 102948
07:00+8nne127924 0.0 102983
10:00+10ne126080 0.0 1029432
13:00+13nne214969 0.0 1028935
16:00+14ne11497 0.0 10271190
19:00+11ese23648 0.0 1028143
22:00+9se11740 0.0 102949
1 march, mon
mon101:00+8ene00772 0.0 103022
04:00+8nne118036 0.0 102932
07:00+8nw007868 0.0 102983
10:00+10sse116885 0.0 1029391
13:00+14ene115380 0.0 10291006
16:00+14ne115083 0.0 10281248
19:00+12e236190 0.0 1030178
22:00+10e1268100 0.0 1032130